Courtenay, British Columbia

3:22 AM PST on December 07, 2016 (GMT -0800)
Comox

Weather History for CYQQ - January, 2013

Change the Weather History Date:

Monday, January 28, 2013

  Actual Average Record
Temperature  
Mean Temperature 38 °F -  
Max Temperature 40 °F 42 °F 52 °F (2016)
Min Temperature 35 °F 34 °F 24 °F (2002)
Degree Days  
Heating Degree Days 28    
Moisture  
Dew Point 36 °F    
Average Humidity 94    
Maximum Humidity 100    
Minimum Humidity 78    
Precipitation  
Precipitation 0.02 in - - ()
Sea Level Pressure  
Sea Level Pressure 30.01 in    
Wind  
Wind Speed 3 mph ()    
Max Wind Speed 8 mph    
Max Gust Speed -    
Visibility 19.7 miles    
Events Rain    
Averages and records for this station are not official NWS values.
T = Trace of Precipitation, MM = Missing Value Source: Averaged Metar Reports

Daily Weather History Graph

Daily Weather History Graph

Search for Another Location

Airport or City:

Trip Planner

Search our weather history database for the weather conditions in past years. The results will help you decide how hot, cold, wet, or windy it might be!

Date:

Astronomy

Jan. 28, 2013 Rise Set
Actual Time 7:57 AM PST 5:08 PM PST
Civil Twilight 7:22 AM PST 5:43 PM PST
Nautical Twilight 6:43 AM PST 6:22 PM PST
Astronomical Twilight 6:05 AM PST 7:00 PM PST
Moon 7:26 PM PST (1/28) 8:11 AM PST (1/28)
Length of Visible Light 10h 21m
Length of Day
9h 11m
Full, 97% of the Moon is Illuminated
Jan 28
Full
Feb 3
Last Quarter
Feb 9
New
Feb 17
First Quarter
Feb 25
Full

Hourly Weather History & Observations

Time (PST) Temp. Windchill Dew Point Humidity Pressure Visibility Wind Dir Wind Speed Gust Speed Precip Events Conditions
12:00 AM 35.6 °F - 35.6 °F 100% 30.01 in 20.0 mi Calm Calm - N/A   Mostly Cloudy
1:00 AM 37.4 °F 33.8 °F 35.6 °F 93% 30.00 in 20.0 mi WNW 4.6 mph - N/A   Mostly Cloudy
2:00 AM 37.4 °F 33.8 °F 33.8 °F 87% 30.00 in 20.0 mi NW 4.6 mph - N/A   Overcast
3:00 AM 37.4 °F 31.4 °F 33.8 °F 87% 30.02 in 20.0 mi West 8.1 mph - N/A   Overcast
4:00 AM 38 °F - 34 °F 78% 30.02 in 19 mi West 4.6 mph - -   Overcast
4:00 AM 37.4 °F 33.8 °F 33.8 °F 87% 30.02 in 20.0 mi West 4.6 mph - N/A   Overcast
5:00 AM 35.6 °F - 33.8 °F 93% 30.02 in 20.0 mi SSW 2.3 mph - N/A   Overcast
6:00 AM 35.6 °F - 35.6 °F 100% 30.02 in 20.0 mi Calm Calm - N/A   Overcast
7:00 AM 35.6 °F - 35.6 °F 100% 30.02 in 20.0 mi West 2.3 mph - N/A   Overcast
8:00 AM 35.6 °F - 35.6 °F 100% 30.01 in 20.0 mi Calm Calm - N/A   Overcast
9:00 AM 35.6 °F - 35.6 °F 100% 30.01 in 20.0 mi Calm Calm - N/A Rain Light Rain
10:00 AM 37 °F - 36 °F 97% 30.01 in 19 mi Calm Calm - - Rain Light Rain
10:00 AM 37.4 °F - 37.4 °F 100% 30.01 in 20.0 mi Calm Calm - N/A Rain Light Rain
11:00 AM 39.2 °F - 37.4 °F 93% 30.02 in 15.0 mi Calm Calm - N/A Rain Light Rain
12:00 PM 41.0 °F 39.0 °F 37.4 °F 87% 30.01 in 20.0 mi NE 3.5 mph - N/A Rain Light Rain
12:15 PM - - - N/A% - 20.0 mi ENE 3.5 mph - N/A   Overcast
12:52 PM - - - N/A% - 20.0 mi East 3.5 mph - N/A Rain Light Rain
1:00 PM 41.0 °F 39.0 °F 37.4 °F 87% 30.00 in 20.0 mi East 3.5 mph - N/A Rain Light Rain
1:45 PM - - - N/A% - 20.0 mi ENE 4.6 mph - N/A Rain Light Rain
2:00 PM 39.2 °F 35.9 °F 37.4 °F 93% 29.99 in 20.0 mi ENE 4.6 mph - N/A Rain Light Rain
3:00 PM 41.0 °F 39.0 °F 37.4 °F 87% 29.99 in 20.0 mi ENE 3.5 mph - N/A Rain Light Rain
3:50 PM - - - N/A% - 20.0 mi NNE 4.6 mph - N/A   Overcast
4:00 PM 40 °F - 38 °F 88% 29.99 in 19 mi NNE 5.8 mph - - Rain Light Rain
4:00 PM 39.2 °F 35.0 °F 37.4 °F 93% 29.99 in 20.0 mi NE 5.8 mph - N/A Rain Light Rain
5:00 PM 39.2 °F 35.0 °F 37.4 °F 93% 30.00 in 20.0 mi North 5.8 mph - N/A   Overcast
6:00 PM 39.2 °F 35.9 °F 37.4 °F 93% 30.01 in 20.0 mi NNW 4.6 mph - N/A   Overcast
6:25 PM - - - N/A% - 20.0 mi NW 3.5 mph - N/A   Mostly Cloudy
7:00 PM 39.2 °F - 37.4 °F 93% 30.01 in 20.0 mi WNW 2.3 mph - N/A   Mostly Cloudy
7:21 PM - - - N/A% - 20.0 mi West 3.5 mph - N/A   Mostly Cloudy
7:48 PM - - - N/A% - 20.0 mi WNW 2.3 mph - N/A   Mostly Cloudy
8:00 PM 37.4 °F - 37.4 °F 100% 30.02 in 20.0 mi WNW 2.3 mph - N/A   Mostly Cloudy
9:00 PM 37.4 °F 34.9 °F 37.4 °F 100% 30.03 in 20.0 mi West 3.5 mph - N/A   Mostly Cloudy
10:00 PM 36 °F - 35 °F 95% 30.04 in 19 mi Calm Calm - -   Partly Cloudy
10:00 PM 35.6 °F - 35.6 °F 100% 30.04 in 20.0 mi Calm Calm - N/A   Mostly Cloudy
11:00 PM 35.6 °F 32.8 °F 35.6 °F 100% 30.05 in 20.0 mi SSW 3.5 mph - N/A   Mostly Cloudy